Akron, OH

3:45 AM EDT on April 30, 2017 (GMT -0400)
Akron Fulton International

Weather History for KAKR - January, 2013

Change the Weather History Date:

Wednesday, January 9, 2013

  Actual Average (KCAK) Record (KCAK)
Temperature  
Mean Temperature 40 °F -  
Max Temperature 45 °F 30 °F 63 °F (1946)
Min Temperature 34 °F 15 °F -6 °F (1970)
Degree Days  
Heating Degree Days 26    
Moisture  
Dew Point 29 °F    
Average Humidity 69    
Maximum Humidity 83    
Minimum Humidity 58    
Precipitation  
Precipitation 0.04 in - - ()
Sea Level Pressure  
Sea Level Pressure 30.28 in    
Wind  
Wind Speed 10 mph (SW)    
Max Wind Speed 18 mph    
Max Gust Speed 28 mph    
Visibility 10 miles    
Events Rain    
Averages and records for this station are not official NWS values.
T = Trace of Precipitation, MM = Missing Value Source: NWS Daily Summary

Daily Weather History Graph

Daily Weather History Graph

Search for Another Location

Airport or City:

Trip Planner

Search our weather history database for the weather conditions in past years. The results will help you decide how hot, cold, wet, or windy it might be!

Date:

Astronomy

Jan. 09, 2013 Rise Set
Actual Time 7:50 AM EST 5:16 PM EST
Civil Twilight 7:19 AM EST 5:46 PM EST
Nautical Twilight 6:45 AM EST 6:20 PM EST
Astronomical Twilight 6:12 AM EST 6:54 PM EST
Moon 5:28 AM EST (1/9) 3:16 PM EST (1/9)
Length of Visible Light 10h 26m
Length of Day
9h 25m
Waning Crescent, 6% of the Moon is Illuminated
Jan 9
Waning Crescent
Jan 11
New
Jan 18
First Quarter
Jan 26
Full
Feb 3
Last Quarter

Hourly Weather History & Observations

Time (EST) Temp. Windchill Dew Point Humidity Pressure Visibility Wind Dir Wind Speed Gust Speed Precip Events Conditions
12:54 AM 35.1 °F 28.6 °F 26.1 °F 70% 30.24 in 10.0 mi South 8.1 mph - N/A   Clear
1:54 AM 34.0 °F 28.8 °F 26.1 °F 73% 30.24 in 10.0 mi South 5.8 mph - N/A   Clear
2:54 AM 34.0 °F 28.0 °F 25.0 °F 70% 30.24 in 10.0 mi South 6.9 mph - N/A   Clear
3:54 AM 34.0 °F 28.8 °F 25.0 °F 70% 30.23 in 10.0 mi South 5.8 mph - N/A   Clear
4:54 AM 36.0 °F 30.3 °F 25.0 °F 64% 30.20 in 10.0 mi South 6.9 mph - N/A   Mostly Cloudy
5:54 AM 37.9 °F 30.5 °F 25.0 °F 60% 30.19 in 10.0 mi South 11.5 mph - N/A   Mostly Cloudy
6:54 AM 39.0 °F 32.3 °F 27.0 °F 62% 30.20 in 10.0 mi South 10.4 mph - N/A   Overcast
7:54 AM 39.9 °F 32.5 °F 30.0 °F 68% 30.21 in 10.0 mi SSW 12.7 mph - N/A   Overcast
8:54 AM 39.0 °F 32.8 °F 34.0 °F 82% 30.22 in 9.0 mi SSW 9.2 mph - 0.04 in Rain Light Rain
9:54 AM 39.9 °F 32.9 °F 35.1 °F 83% 30.24 in 10.0 mi SW 11.5 mph - 0.00 in   Overcast
10:54 AM 39.9 °F 32.5 °F 35.1 °F 83% 30.22 in 10.0 mi SSW 12.7 mph - N/A   Clear
11:54 AM 42.1 °F 34.5 °F 36.0 °F 79% 30.22 in 10.0 mi SW 15.0 mph 21.9 mph N/A   Clear
12:54 PM 45.0 °F 37.4 °F 35.1 °F 68% 30.21 in 10.0 mi WSW 18.4 mph 27.6 mph N/A   Clear
1:54 PM 44.1 °F 37.4 °F 32.0 °F 63% 30.21 in 10.0 mi West 13.8 mph 24.2 mph N/A   Clear
2:54 PM 45.0 °F 39.3 °F 30.9 °F 58% 30.23 in 10.0 mi WSW 11.5 mph - N/A   Clear
3:54 PM 45.0 °F 38.2 °F 30.9 °F 58% 30.27 in 10.0 mi WSW 15.0 mph - N/A   Clear
4:54 PM 43.0 °F 36.0 °F 28.9 °F 58% 30.29 in 10.0 mi WSW 13.8 mph 18.4 mph N/A   Clear
5:54 PM 39.9 °F 32.5 °F 28.0 °F 63% 30.32 in 10.0 mi West 12.7 mph - N/A   Clear
6:54 PM 39.0 °F 31.8 °F 28.0 °F 65% 30.36 in 10.0 mi West 11.5 mph - N/A   Clear
7:54 PM 37.9 °F 30.5 °F 28.0 °F 68% 30.39 in 10.0 mi WSW 11.5 mph 20.7 mph N/A   Clear
8:54 PM 37.0 °F 31.6 °F 28.0 °F 70% 30.41 in 10.0 mi WSW 6.9 mph - N/A   Clear
9:54 PM 35.1 °F 27.9 °F 28.0 °F 76% 30.43 in 10.0 mi WSW 9.2 mph - N/A   Clear
10:54 PM 34.0 °F 28.8 °F 28.0 °F 79% 30.45 in 10.0 mi WSW 5.8 mph - N/A   Clear
11:54 PM 34.0 °F 29.8 °F 27.0 °F 75% 30.48 in 10.0 mi SW 4.6 mph - N/A   Clear